This is the latest recevied weather packets stored in our database for station/object KC0RPY. If no packets are shown the sender has not sent any weather packets the latest 10 day(s).
| Time | Temp. | Humidity | Pressure | Rain* | Wind** | Luminosity | Snow |
|---|---|---|---|---|---|---|---|
| 1777825403 | 20.56° C | 51% | 1014.5 hPa | 0 mm | - | 907 W/m² | - |
| 1777825100 | 20.56° C | 51% | 1014.5 hPa | 0 mm | - | 893 W/m² | - |
| 1777824796 | 20° C | 51% | 1014.5 hPa | 0 mm | - | 873 W/m² | - |
| 1777824493 | 20° C | 51% | 1014.5 hPa | 0 mm | - | 876 W/m² | - |
| 1777824189 | 20° C | 51% | 1015 hPa | 0 mm | - | 835 W/m² | - |
| 1777823884 | 19.44° C | 51% | 1014.2 hPa | 0 mm | - | 818 W/m² | - |
| 1777823583 | 19.44° C | 51% | 1014.2 hPa | 0 mm | - | 775 W/m² | - |
| 1777823279 | 19.44° C | 52% | 1014.2 hPa | 0 mm | - | 780 W/m² | - |
| 1777822977 | 19.44° C | 53% | 1014.5 hPa | 0 mm | - | 738 W/m² | - |
| 1777822675 | 18.89° C | 53% | 1014.2 hPa | 0 mm | - | 738 W/m² | - |
| 1777822373 | 18.89° C | 52% | 1014.5 hPa | 0 mm | - | 730 W/m² | - |
| 1777822070 | 18.33° C | 54% | 1014.5 hPa | 0 mm | - | 714 W/m² | - |
| 1777821768 | 18.33° C | 53% | 1014.2 hPa | 0 mm | - | 691 W/m² | - |
| 1777821464 | 17.78° C | 54% | 1014.5 hPa | 0 mm | - | 673 W/m² | - |
| 1777821162 | 17.78° C | 54% | 1014.5 hPa | 0 mm | - | 632 W/m² | - |
| 1777820859 | 17.78° C | 54% | 1015 hPa | 0 mm | - | 605 W/m² | - |
| 1777820555 | 17.78° C | 54% | 1015 hPa | 0 mm | - | 594 W/m² | - |
| 1777820252 | 17.22° C | 54% | 1014.5 hPa | 0 mm | - | 582 W/m² | - |
| 1777819949 | 16.67° C | 54% | 1015 hPa | 0 mm | - | 563 W/m² | - |
| 1777819646 | 16.67° C | 54% | 1015 hPa | 0 mm | - | 546 W/m² | - |
| 1777819344 | 16.67° C | 54% | 1015 hPa | 0 mm | - | 489 W/m² | - |
| 1777819040 | 16.67° C | 54% | 1015.3 hPa | 0 mm | - | 460 W/m² | - |
| 1777818738 | 16.11° C | 54% | 1015.3 hPa | 0 mm | - | 447 W/m² | - |
| 1777818434 | 16.11° C | 54% | 1015 hPa | 0 mm | - | 103 W/m² | - |
| 1777818131 | 15.56° C | 54% | 1015.3 hPa | 0 mm | - | 402 W/m² | - |
* Rain latest hour (hover to see other rain measurements)
** Current wind speed in m/s (hover to see current wind gust speed)